Weather in Berezovka

Russia / Lipetsk Oblast     53°26′05″N   38°53′07″E
temp.,
°C
wind,
m/s
gust,
m/s
humid.,
%
clouds,
%
prec.,
mm/h
press.,
hPa
HPBL,
m
6 march, sat
sat600:00−9nw239148 0.0 101521
03:00−11nw229024 0.0 101721
06:00−12nw229020 0.0 101621
09:00−9nnw129144 0.0 101775
12:00−7nnw2392100 0.1 1017267
15:00−5nnw3590100 0.7 1016503
18:00−9wnw349224 0.0 101737
21:00−11w349012 0.0 101761
7 march, sun
sun700:00−12w479114 0.0 1017112
03:00−12wsw410907 0.0 1016157
06:00−11sw6148840 0.0 1012280
09:00−7sw9188271 0.0 1009665
12:00−4sw111881100 0.0 10041071
15:00−3sw121993100 1.3 10001266
18:00−6nw91690100 2.2 999741
21:00−9wsw487783 2.3 1002128
8 march, mon
mon800:00−11sw511770 0.0 1001188
03:00−10sw612828 0.0 1000253
06:00−7sw7169295 0.0 996550
09:00−9w9147897 0.5 997967
12:00−7wnw9138787 0.2 10001109
15:00−6wnw8128193 0.3 10031058
18:00−8w71483100 0.1 1006747
21:00−10w5129197 0.1 1009350
9 march, tue
tue900:00−12w499560 0.0 1010186
03:00−13wnw469657 0.0 1012127
06:00−15nw349688 0.0 101366
09:00−13nw369589 0.1 1015253
12:00−11nw468899 0.1 1016658
15:00−11nw478899 0.1 1017666
18:00−13wnw3693100 0.1 1018132
21:00−16wnw349378 0.1 102156
10 march, wed
wed1000:00−17w349349 0.0 102135
03:00−17sw349342 0.0 102036
06:00−13sw4895100 0.6 1019361
09:00−11wsw4794100 1.3 1018428
12:00−7w5894100 0.9 1019604
15:00−11nne6893100 1.6 1019395
18:00−15nne4894100 0.1 1021306
21:00−20nne349880 0.1 102363